Location: Newark
(44.2764°N, 5.2753°E)
Time: 07:26:22
(UTC+00:00)

ISS - Pass Details

Date: 19 January 2020
Orbit: 415 x 422 km, 51.6° (Epoch: 22 February)

Event Time Altitude Azimuth Distance (km) Brightness Sun altitude
Rises 18:02:21 0° 195° (SSW) 2,364 0.4 -16.3°
Reaches altitude 10° 18:05:01 10° 172° (S) 1,503 -0.9 -16.7°
Enters shadow 18:06:29 15° 147° (SSE) 1,231 -1.6 -17.0°
